Regional Weather Roundup
Issued by NWS Lake Charles, LA

Home | Current Version | Previous Version | Text Only | Print | Product List | Glossary On
Versions: 1 2 3 4 5 6 7 8 9 10 11 12 13 14 15 16 17 18 19 20 21 22 23 24 25 26 27 28 29 30 31 32 33 34 35 36 37 38 39 40 41 42 43 44 45 46 47 48 49 50
000
ASUS44 KLCH 272210
RWRLCH
RWRLCH
REGIONAL WEATHER ROUNDUP
NATIONAL WEATHER SERVICE LAKE CHARLES LA
500 PM CDT MON APR 27 2015

Note: "fair" indicates few or no clouds below 12,000 feet with no
significant weather and/or obstructions to visibility.


ACROSS SOUTHEAST TEXAS

CITY           SKY/WX    TMP DP  RH WIND       PRES   REMARKS
BEAUMONT       PTSUNNY   73  65  75 NE14      29.64F THUNDER
BEAUMONT CITY  MOCLDY    69  66  90 NE8       29.68S
ORANGE         CLOUDY    71  64  78 NE6       29.68S
JASPER         NOT AVBL
$$

ACROSS CENTRAL LOUISIANA

CITY           SKY/WX    TMP DP  RH WIND       PRES   REMARKS
LEESVILLE      PTSUNNY   70  63  78 NE9       29.71F
FULLERTON        N/A     72  61  68 VRB7      29.69F THUNDER
ALEXANDRIA INT TSTM     N/A N/A N/A NE14      29.68F
ESLER FIELD    LGT RAIN  65  63  93 E9        29.68F
DERIDDER       MOCLDY    69  62  79 NE12      29.72F
OAKDALE        CLOUDY    66  63  89 NE3       29.71R
OPELOUSAS      CLOUDY    63  62  94 E12       29.70R THUNDER
$$

ACROSS SOUTHWEST AND SOUTH CENTRAL LOUISIANA

CITY           SKY/WX    TMP DP  RH WIND       PRES   REMARKS
SULPHUR        CLOUDY    72  66  82 NE7       29.67S
LAKE CHARLES   PTSUNNY   72  64  76 E13       29.66S
CHENNAULT INT  NOT AVBL
CAMERON PHI    MOCLDY    72  66  83 E13       29.67F
DEQUINCY       CLOUDY    68  68 100 NE7       29.68F
JENNINGS       CLOUDY    68  65  90 E12       29.67F
LAFAYETTE      CLOUDY    70  64  81 NW21      29.75R
NEW IBERIA     PTSUNNY   72  65  78 NE9       29.67F
ABBEVILLE      CLOUDY    70  65  85 N14       29.72R
PATTERSON      NOT AVBL
SALT POINT       N/A     73  67  81 VRB5      29.65R
$$

SELECTED SITES ACROSS THE REGION

CITY           SKY/WX    TMP DP  RH WIND       PRES   REMARKS
HOUSTON BUSH   PTSUNNY   77  65  66 NE12      29.65F
HOUSTON HOBBY  PTSUNNY   77  65  66 NE13      29.64F
GALVESTON      CLOUDY    74  68  81 NE15      29.66R
COLLEGE STAT   MOSUNNY   82  69  64 VRB6      29.64F
CONROE         CLOUDY    75  63  66 E7        29.68F
HUNTSVILLE     MOSUNNY   79  66  64 E7        29.66F
LUFKIN           N/A     75  64  68 E9        29.70F
SHREVEPORT     MOSUNNY   73  54  51 E15       29.75F
MONROE         MOSUNNY   70  54  56 NE17G25   29.82S
NATCHEZ MS     CLOUDY    63  57  82 E10       29.73F
BATON ROUGE    CLOUDY    68  63  84 E9G25     29.69F
N.O. INTL ARPT CLOUDY    72  63  73 E8        29.71R
SLIDELL        CLOUDY    65  64  97 NE6       29.72R
$$

MARINE REPORTS

STATION/POSITION TIME  TEMP    WIND        PRES    VSBY  WAVE
                       AIR SEA DIR/SP/G                  HT/PER
                 (UTC) (F)     (DEG/KT/KT) (MB)    (MI)  (FT/S)
BUOY 30 S HIGH I 2150   67 74   30/ 14/ 21 1004.1R
SEA RIM ST PARK  2200   73      70/ 12/ 16 1003.7F
PORT ARTHUR      2100      74   50/  4/  9 1004.3F
SABINE PASS N    2100   73 76   90/ 14/ 18 1003.9F
TEXAS POINT      NOT AVBL
CALCASIEU PASS   2100   72 77   60/ 12/ 15   N/A
LK CHARLES BEACH 2100   71 72              1004.9F
MARSH ISLAND     2100   72     120/ 16/ 19   N/A           0
FRESH WATER LOCK 2100   69 77   90/ 10/ 17 1003.6F
AMERADA PASS     2100   71 70  100/ 10/ 12 1003.8F
$$


USA.gov is the U.S. government's official web portal to all federal, state and local government web resources and services.